Location: Hackbridge
(51.3833°N, 0.1500°W)
Time: 14:48:07
(UTC+00:00)

SL-24 R/B - RUBIN 2 - Pass Details

Date: 13 October 2019
Orbit: 578 x 1017 km, 64.6° (Epoch: 21 November)

Event Time Altitude Azimuth Distance (km) Brightness Sun altitude
Rises 18:12:43 0° 231° (SW) 2,998 8.0 -10.2°
Reaches altitude 10° 18:14:56 10° 235° (SW) 2,145 7.2 -10.5°
Maximum altitude 18:19:48 65° 317° (NW) 832 4.4 -11.3°
Drops below altitude 10° 18:25:23 10° 40° (NE) 2,448 6.3 -12.1°
Enters shadow 18:27:24 - 43° (NE) 3,212 6.8 -12.5°
